Location: Newark
(13.6797°N, 8.5297°E)
Time: 15:16:30
(UTC+00:00)

SR - Pass Details

Date: 30 January 2020
Orbit: 575 x 881 km, 66.7° (Epoch: 17 February)

Event Time Altitude Azimuth Distance (km) Brightness Sun altitude
Rises 07:12:17 0° 321° (NW) 3,147 ? 17.1°
Reaches altitude 10° 07:15:03 10° 309° (NW) 2,168 ? 17.7°
Maximum altitude 07:19:04 26° 254° (WSW) 1,320 ? 18.6°
Drops below altitude 10° 07:22:49 10° 198° (SSW) 2,014 ? 19.4°
Sets 07:25:19 0° 184° (S) 2,877 ? 20.0°
